Location: Rumah Geringgi
(3.1667°N, 113.1667°E)
Time: 18:41:41
(UTC+00:00)

CBERS-1 - Pass Details

Date: 03 August 2024
Orbit: 766 x 775 km, 98.8° (Epoch: 11 September)

Event Time Altitude Azimuth Distance (km) Brightness Sun altitude
Rises 20:43:01 0° 11° (N) 3,223 7.7 -25.2°
Reaches altitude 10° 20:45:19 10° 10° (N) 2,297 6.8 -24.7°
Maximum altitude 20:50:23 83° 283° (WNW) 774 3.8 -23.5°
Enters shadow 20:51:59 45° 200° (SSW) 1,035 4.3 -23.1°
